Wind_Speed
6 4 6 8 5 12 8 4 3 4 6 9 8 9 8 10 10 8 8 6 5 5 7 10 11 10 8 9 10 12 12 9 9 18 15 13 9 6 4 4 3 4 5
5 5 7 5 9 12 6 2 2 8 7 8 7 5 8 11 14 15 11 10 8 7 11 10 12 11 10 9 8 10 9 8 8 18 19 14 10 8 4 4 6 6 5
5 2 12 16 10 9 4 3 7 6 4 4 5 6 8 9 11 12 12 14 14 12 9 9 12 10 11 9 7 7 8 8 7 12 16 11 11 8 7 8 7 7 7
9 12 12 11 8 4 4 6 7 6 6 7 8 8 6 6 8 9 8 11 13 15 13 11 11 10 11 11 8 7 7 7 9 11 10 12 11 11 10 8 9 7 6
14 14 12 11 7 3 5 5 5 4 4 7 7 2 3 2 5 4 4 7 11 12 12 11 11 9 7 9 10 11 10 8 8 11 13 13 10 12 9 9 8 7 5
15 15 14 12 8 5 6 5 4 3 4 6 1 2 3 3 4 2 3 6 7 8 9 10 9 9 8 7 8 10 10 6 9 9 10 9 10 8 9 7 5 5 4
14 16 13 12 10 6 7 4 4 2 4 5 5 4 2 2 4 3 4 4 4 5 4 6 6 9 7 6 5 6 8 9 9 8 9 9 8 8 5 6 6 5 2
12 11 10 12 12 10 7 6 10 8 7 8 10 6 3 4 5 5 3 2 2 4 3 2 1 3 6 5 5 5 6 7 6 5 4 5 4 6 7 6 6 5 4
13 12 11 11 13 15 9 7 9 8 7 9 12 9 4 4 6 7 6 3 3 2 1 3 2 1 5 7 6 6 7 8 8 7 6 5 4 5 6 7 6 4 4
15 15 13 12 12 14 12 12 10 7 10 10 12 13 8 7 8 9 9 7 4 3 1 1 4 4 2 5 5 6 8 12 14 14 12 10 11 8 2 3 6 7 1
17 13 14 13 11 16 14 15 15 13 10 12 15 15 12 10 10 12 12 11 8 7 4 2 3 5 5 4 2 3 8 12 10 8 6 5 5 4 6 9 6 7 3
11 18 15 15 15 14 16 15 17 17 16 15 16 16 12 12 12 15 16 12 12 11 9 4 2 4 5 7 8 6 8 6 4 5 6 7 7 1 5 4 6 7 7
15 16 18 17 15 14 14 16 19 20 20 20 19 19 16 14 14 17 17 17 17 15 12 9 7 5 4 5 7 12 9 4 5 11 10 4 3 1 2 5 3 3 2
17 20 18 18 18 18 20 20 19 21 20 21 24 23 21 19 17 18 19 18 17 15 13 10 8 7 4 10 15 11 7 5 7 7 3 1 1 1 2 5 2 1 4
7 9 12 13 15 16 18 20 23 25 26 23 21 23 26 25 23 20 19 18 16 14 14 14 14 10 10 12 11 7 4 7 7 6 4 3 4 2 3 4 1 1 2
3 5 8 11 14 14 17 20 23 23 24 24 24 26 26 30 26 17 18 17 17 17 18 17 16 13 13 13 13 11 9 8 7 6 4 5 5 3 4 3 1 1 1
3 5 8 11 14 13 14 18 20 19 21 21 20 21 24 23 25 19 18 15 15 16 19 18 15 16 13 13 17 17 11 10 7 9 6 3 5 4 3 2 3 5 7
9 6 9 10 14 15 14 17 13 13 14 15 15 16 19 20 20 22 21 18 20 22 20 21 20 19 14 14 13 17 16 13 7 10 9 8 7 4 6 6 5 7 9
15 8 8 9 13 15 14 14 14 13 14 14 15 16 17 21 23 23 22 23 22 23 21 23 23 17 13 21 17 16 14 14 10 10 10 11 9 10 8 7 9 9 10
17 12 8 10 13 15 16 15 16 14 14 13 14 16 19 23 23 24 23 22 23 22 21 20 23 19 17 21 18 18 17 16 14 12 14 12 14 15 13 11 11 13 13
19 14 11 11 13 16 17 16 13 13 15 14 15 16 18 20 23 24 22 22 23 23 20 19 20 17 21 24 21 21 21 21 18 17 16 16 18 18 15 13 14 12 13
18 13 12 11 10 14 15 16 19 17 15 13 13 13 10 11 11 19 19 19 22 23 24 21 17 23 28 26 19 22 22 18 16 18 20 18 22 19 16 15 17 18 21
18 15 10 13 14 15 14 17 20 22 24 22 18 19 19 18 13 16 14 10 8 13 20 17 13 15 24 20 19 16 21 17 19 18 16 12 15 19 21 23 25 24 25
14 12 11 14 14 15 20 23 19 18 19 20 22 24 22 14 13 16 18 14 22 16 17 16 16 19 21 17 22 22 23 25 25 25 21 19 19 20 22 24 27 28 28
15 13 7 10 14 17 16 13 12 14 16 16 14 18 20 17 16 18 20 11 25 26 22 23 25 24 23 24 20 22 22 25 27 28 24 23 20 21 23 25 28 29 28
17 14 11 11 17 20 18 15 12 12 17 13 10 17 20 21 22 22 22 24 19 18 25 20 15 23 26 28 24 21 23 23 22 25 24 24 27 23 25 28 26 21 21
Wind_Direction
201 220 265 285 11 110 134 182 260 148 96 85 78 67 34 35 41 62 78 74 57 51 59 66 81 85 112 133 139 165 181 205 193 170 174 173 171 169 184 151 142 151 161
222 241 283 186 126 126 169 210 146 114 112 108 104 85 67 55 51 55 52 50 55 80 74 74 87 96 104 118 136 152 165 180 204 175 174 171 177 170 160 172 162 145 138
197 186 121 129 138 135 158 114 124 135 133 115 104 96 82 67 57 52 58 62 72 82 95 83 90 100 100 112 126 147 151 148 159 177 175 175 173 171 158 153 148 150 137
161 147 134 131 119 137 139 109 105 103 97 98 91 79 86 88 76 72 51 66 72 76 82 89 91 88 84 82 101 124 131 135 147 162 167 168 173 164 158 157 150 145 134
155 149 140 140 128 120 110 102 91 96 84 93 91 100 44 85 111 92 64 61 73 72 76 78 81 79 80 82 81 100 106 126 137 147 162 161 170 164 158 156 138 123 124
164 159 158 156 169 188 145 140 158 168 112 97 156 328 358 132 147 95 96 100 97 95 80 78 66 81 80 82 85 96 103 106 139 154 146 151 153 161 164 160 144 188 173
167 173 176 183 187 205 184 172 194 190 159 176 223 283 335 160 158 129 101 113 154 121 92 56 58 72 77 92 92 89 106 110 111 124 139 139 143 139 153 167 191 192 205
160 180 194 204 205 199 220 267 215 220 206 218 241 230 275 191 176 170 147 147 116 113 164 223 143 67 72 98 127 119 105 111 110 118 118 146 157 145 144 154 177 188 191
179 200 216 219 221 217 231 206 208 231 231 225 247 252 239 234 198 183 163 189 354 333 121 104 157 168 96 99 115 124 113 104 103 107 99 100 149 180 184 173 168 246 251
212 218 232 241 234 229 230 225 224 236 234 228 241 247 241 238 214 202 186 217 276 299 273 189 168 186 150 120 113 120 121 109 98 93 86 84 85 85 108 262 222 247 250
215 225 242 254 255 242 239 233 233 230 232 220 228 241 247 243 242 217 201 216 238 276 267 224 181 184 185 189 170 98 121 128 126 127 116 119 134 83 36 10 225 254 246
216 229 241 252 258 259 254 244 239 238 234 226 234 234 243 249 247 229 214 217 226 244 270 217 212 197 195 201 206 208 184 160 194 246 196 162 168 57 13 45 80 78 64
216 223 235 243 248 247 254 250 243 243 239 240 237 235 246 249 244 230 224 221 228 244 251 250 246 223 213 196 177 163 166 188 178 142 151 156 275 287 66 12 91 97 50
225 226 237 237 239 238 245 250 253 251 252 243 239 246 248 251 255 237 228 226 227 237 232 235 228 207 195 167 160 167 175 166 174 163 161 290 120 89 222 2 268 24 342
247 237 249 256 257 253 261 256 259 257 246 250 248 252 249 257 253 242 229 229 229 227 227 226 212 203 171 163 170 174 139 183 211 182 167 180 191 228 211 301 32 331 0
210 226 243 253 262 257 255 258 258 251 249 250 255 258 262 260 246 236 221 220 226 223 225 222 211 198 189 183 182 189 191 193 182 183 200 220 219 239 316 167 242 323 304
261 239 249 257 264 267 278 282 270 261 258 255 255 250 252 253 236 221 216 217 214 220 224 218 206 192 205 226 226 207 211 206 205 206 201 220 191 225 235 254 248 277 250
327 289 263 259 268 281 287 301 280 268 266 256 255 248 240 229 223 210 211 215 224 228 228 216 195 199 227 216 192 209 224 212 217 202 204 212 220 257 213 247 277 280 247
322 308 294 279 270 281 286 292 290 268 264 258 255 242 228 211 205 213 217 228 232 234 229 218 211 211 224 210 219 219 225 214 220 216 217 213 222 231 239 249 272 279 296
321 311 296 278 278 284 288 292 293 266 259 253 243 236 223 211 217 223 229 229 230 228 227 226 212 212 208 215 213 219 217 216 216 224 244 234 226 233 264 243 265 277 286
320 314 295 291 280 281 280 285 281 271 261 259 251 245 238 243 245 233 235 234 231 225 214 201 208 221 214 217 221 224 231 241 247 221 231 232 233 240 252 250 265 269 270
306 315 316 293 291 292 275 269 271 272 268 263 247 229 220 228 250 242 244 241 237 230 219 208 230 246 219 221 234 236 236 245 220 241 253 255 252 237 224 240 252 265 276
291 303 289 293 292 287 278 275 270 267 264 264 251 241 238 226 243 225 215 226 212 214 213 223 254 206 216 233 239 235 239 229 239 224 225 239 232 242 255 263 276 281 280
280 309 292 289 287 293 297 283 277 262 271 264 255 251 233 227 254 242 223 247 238 216 214 223 227 228 230 230 230 228 239 227 230 243 248 272 263 269 277 281 283 284 283
274 294 298 290 280 286 295 291 262 248 264 261 255 239 233 230 230 221 227 257 233 228 225 222 231 239 238 237 226 223 225 234 240 253 264 260 268 272 272 277 283 283 281
274 287 288 281 274 278 289 286 271 276 267 270 258 208 228 228 229 231 229 241 219 210 221 207 215 227 226 235 241 253 242 234 247 249 250 266 268 266 279 285 282 269 266
Height
1530 1531 1533 1534 1535 1533 1536 1540 1542 1542 1541 1540 1539 1539 1539 1537 1535 1535 1536 1535 1535 1534 1532 1530 1527 1527 1528 1529 1529 1531 1533 1536 1537 1542 1544 1546 1548 1549 1550 1551 1552 1552 1553
1530 1532 1530 1532 1535 1537 1540 1541 1542 1542 1542 1542 1541 1541 1540 1540 1537 1537 1537 1536 1535 1533 1533 1533 1531 1530 1531 1531 1531 1531 1533 1534 1536 1538 1542 1545 1547 1549 1550 1551 1553 1553 1554
1530 1533 1532 1533 1536 1538 1540 1540 1541 1542 1542 1542 1542 1542 1542 1541 1540 1539 1539 1538 1536 1534 1535 1535 1534 1534 1532 1532 1532 1533 1534 1534 1536 1538 1541 1545 1546 1549 1550 1551 1552 1553 1554
1528 1531 1533 1534 1536 1538 1539 1540 1541 1542 1543 1543 1543 1543 1543 1543 1542 1542 1541 1541 1540 1538 1537 1537 1535 1535 1534 1534 1533 1534 1535 1535 1536 1539 1541 1543 1546 1548 1550 1551 1553 1554 1555
1528 1531 1533 1535 1537 1538 1539 1540 1540 1543 1543 1543 1543 1543 1544 1545 1544 1544 1544 1543 1542 1541 1540 1539 1537 1536 1535 1536 1536 1535 1536 1537 1538 1539 1541 1543 1545 1548 1550 1552 1553 1555 1556
1528 1531 1532 1534 1536 1537 1538 1540 1542 1543 1543 1543 1543 1544 1545 1545 1545 1545 1545 1544 1544 1544 1542 1541 1540 1539 1538 1538 1538 1538 1538 1539 1539 1541 1542 1544 1546 1548 1550 1551 1553 1554 1555
1527 1530 1531 1533 1535 1539 1540 1539 1541 1542 1542 1543 1543 1544 1545 1545 1545 1545 1545 1545 1546 1545 1544 1543 1543 1542 1542 1541 1540 1540 1540 1541 1542 1544 1545 1546 1548 1549 1550 1552 1553 1554 1555
1526 1529 1532 1534 1535 1537 1538 1538 1537 1538 1541 1542 1543 1543 1544 1544 1544 1545 1545 1545 1546 1546 1546 1545 1544 1543 1544 1543 1542 1543 1544 1544 1544 1546 1547 1548 1549 1549 1551 1551 1553 1553 1554
1524 1527 1530 1532 1534 1535 1536 1536 1536 1537 1539 1539 1540 1542 1543 1544 1544 1545 1545 1545 1545 1545 1545 1545 1545 1544 1545 1544 1545 1545 1545 1546 1547 1547 1548 1549 1550 1550 1551 1552 1551 1553 1553
1524 1526 1529 1531 1532 1533 1533 1534 1534 1535 1536 1538 1539 1540 1541 1543 1543 1543 1544 1543 1544 1545 1545 1545 1545 1545 1545 1545 1546 1547 1547 1547 1548 1549 1550 1550 1550 1551 1551 1552 1551 1552 1551
1523 1524 1527 1528 1530 1531 1531 1531 1533 1533 1534 1535 1536 1536 1538 1539 1540 1541 1541 1541 1541 1543 1544 1544 1544 1545 1545 1545 1546 1547 1548 1548 1549 1550 1550 1550 1551 1551 1552 1551 1550 1551 1552
1521 1521 1523 1524 1526 1527 1528 1528 1529 1531 1531 1532 1532 1533 1534 1536 1537 1538 1539 1540 1541 1540 1542 1543 1543 1543 1544 1544 1546 1547 1547 1548 1549 1549 1549 1550 1550 1550 1551 1551 1551 1551 1551
1515 1518 1520 1521 1522 1523 1524 1524 1526 1526 1528 1528 1529 1529 1530 1531 1532 1533 1535 1537 1538 1539 1540 1541 1542 1542 1542 1543 1544 1545 1546 1547 1547 1547 1549 1550 1551 1550 1551 1551 1551 1551 1551
1513 1514 1516 1517 1518 1518 1520 1520 1520 1521 1522 1524 1524 1525 1525 1527 1527 1528 1530 1532 1534 1535 1537 1539 1540 1541 1541 1542 1543 1545 1546 1547 1548 1547 1547 1548 1550 1550 1550 1550 1550 1550 1550
1508 1510 1513 1513 1514 1515 1516 1516 1517 1517 1516 1517 1518 1520 1520 1521 1521 1524 1526 1528 1531 1532 1534 1535 1536 1538 1539 1540 1543 1544 1544 1545 1546 1546 1547 1548 1548 1549 1550 1550 1550 1550 1549
1505 1508 1510 1510 1510 1511 1511 1511 1511 1511 1512 1512 1513 1514 1514 1514 1516 1519 1522 1524 1526 1529 1530 1531 1533 1535 1537 1539 1540 1541 1542 1543 1544 1545 1546 1546 1547 1548 1548 1548 1549 1549 1548
1503 1504 1506 1507 1506 1507 1507 1505 1504 1504 1504 1504 1505 1506 1507 1508 1511 1514 1517 1520 1522 1523 1525 1527 1529 1532 1534 1535 1537 1539 1539 1540 1542 1542 1543 1544 1545 1546 1547 1547 1547 1547 1547
1501 1501 1502 1504 1503 1503 1503 1502 1500 1500 1500 1499 1500 1500 1502 1503 1506 1510 1513 1515 1517 1518 1520 1523 1525 1527 1528 1530 1531 1534 1536 1537 1538 1539 1541 1542 1543 1544 1544 1544 1544 1544 1543
1500 1500 1500 1500 1500 1499 1499 1499 1497 1496 1496 1496 1496 1497 1498 1500 1503 1505 1508 1509 1512 1514 1515 1518 1520 1523 1524 1528 1529 1530 1532 1533 1534 1536 1537 1538 1540 1541 1541 1541 1541 1541 1541
1498 1497 1496 1497 1496 1496 1495 1495 1494 1493 1492 1493 1494 1495 1496 1497 1498 1500 1502 1505 1506 1509 1511 1513 1516 1519 1520 1523 1525 1526 1527 1529 1530 1531 1533 1534 1536 1537 1537 1537 1537 1537 1536
1495 1494 1493 1494 1494 1492 1491 1491 1491 1490 1490 1490 1491 1492 1494 1495 1496 1497 1498 1500 1502 1504 1506 1507 1510 1514 1516 1518 1520 1521 1523 1524 1525 1527 1529 1530 1531 1532 1532 1532 1532 1532 1531
1492 1491 1490 1489 1489 1489 1488 1488 1488 1488 1488 1488 1489 1490 1492 1493 1493 1494 1495 1497 1498 1500 1502 1504 1506 1507 1510 1512 1514 1515 1517 1519 1520 1521 1523 1525 1526 1527 1527 1527 1526 1526 1525
1488 1487 1486 1485 1484 1485 1485 1485 1484 1484 1484 1484 1486 1486 1487 1488 1489 1490 1492 1494 1495 1496 1498 1501 1501 1501 1505 1507 1508 1510 1512 1514 1515 1517 1517 1518 1520 1521 1521 1521 1520 1519 1518
1484 1482 1480 1480 1481 1482 1482 1480 1479 1479 1480 1479 1480 1480 1482 1483 1484 1485 1488 1489 1491 1493 1495 1496 1498 1498 1500 1500 1503 1505 1506 1508 1509 1512 1513 1514 1514 1514 1514 1514 1513 1512 1510
1478 1478 1476 1477 1477 1477 1477 1476 1475 1475 1476 1474 1473 1475 1477 1480 1482 1483 1485 1484 1483 1486 1488 1490 1492 1493 1494 1494 1496 1498 1501 1503 1504 1507 1508 1507 1507 1506 1506 1505 1504 1503 1502
1474 1474 1473 1474 1474 1474 1474 1474 1473 1473 1473 1473 1474 1476 1477 1477 1477 1478 1480 1481 1477 1478 1480 1482 1486 1488 1489 1491 1492 1493 1493 1494 1496 1497 1498 1499 1500 1499 1499 1497 1495 1494 1494